Date,TemperatureHighF,TemperatureAvgF,TemperatureLowF,DewpointHighF,DewpointAvgF,DewpointLowF,HumidityHigh,HumidityAvg,HumidityLow,PressureMaxIn,PressureMinIn,WindSpeedMaxMPH,WindSpeedAvgMPH,GustSpeedMaxMPH,PrecipitationSumIn
2013-1-1,57,53,50,-100,-100,-100,0,0,100,0.00,40.00,0,-999,0,0.00
2013-1-2,47,44,41,-100,-100,-100,0,0,100,0.00,40.00,0,-999,0,0.00
2013-1-3,56,46,32,-100,-100,-100,0,0,100,0.00,40.00,0,-999,0,0.00
2013-1-4,51,47,44,-100,-100,-100,0,0,100,0.00,40.00,0,-999,0,0.00
2013-1-5,49,47,45,-100,-100,-100,0,0,100,0.00,40.00,0,-999,0,0.00
2013-1-6,58,47,39,-100,-100,-100,0,0,100,0.00,40.00,0,-999,0,0.00
2013-1-7,59,48,32,-100,-100,-100,0,0,100,0.00,40.00,0,-999,0,0.00
2013-1-8,63,57,48,-100,-100,-100,0,0,100,0.00,40.00,0,-999,0,0.00
2013-1-9,69,66,63,-100,-100,-100,0,0,100,0.00,40.00,0,-999,0,0.00
2013-1-10,72,64,51,-100,-100,-100,0,0,100,0.00,40.00,0,-999,0,0.00
2013-1-11,76,62,44,-100,-100,-100,0,0,100,0.00,40.00,0,-999,0,0.00
2013-1-12,78,75,69,-100,-100,-100,0,0,100,0.00,40.00,0,-999,0,0.00
2013-1-13,51,46,43,-100,-100,-100,0,0,100,0.00,40.00,0,-999,0,0.00
2013-1-14,43,40,38,-100,-100,-100,0,0,100,0.00,40.00,0,-999,0,0.00
2013-1-15,39,36,36,-100,-100,-100,0,0,100,0.00,40.00,0,-999,0,0.00
2013-1-16,54,44,32,-100,-100,-100,0,0,100,0.00,40.00,0,-999,0,0.00
2013-1-17,63,46,29,-100,-100,-100,0,0,100,0.00,40.00,0,-999,0,0.00
2013-1-18,65,46,33,-100,-100,-100,0,0,100,0.00,40.00,0,-999,0,0.00
2013-1-19,67,46,36,-100,-100,-100,0,0,100,0.00,40.00,0,-999,0,0.00
2013-1-20,73,53,41,-100,-100,-100,0,0,100,0.00,40.00,0,-999,0,0.00
2013-1-21,77,61,46,-100,-100,-100,0,0,100,0.00,40.00,0,-999,0,0.00
2013-1-22,72,55,42,-100,-100,-100,0,0,100,0.00,40.00,0,-999,0,0.00
2013-1-23,76,62,49,-100,-100,-100,0,0,100,0.00,40.00,0,-999,0,0.00
2013-1-24,78,68,59,-100,-100,-100,0,0,100,0.00,40.00,0,-999,0,0.00
2013-1-25,80,72,65,-100,-100,-100,0,0,100,0.00,40.00,0,-999,0,0.00
2013-1-26,80,70,65,-100,-100,-100,0,0,100,0.00,40.00,0,-999,0,0.00
2013-1-27,79,70,62,-100,-100,-100,0,0,100,0.00,40.00,0,-999,0,0.00
2013-1-28,81,74,69,-100,-100,-100,0,0,100,0.00,40.00,0,-999,0,0.00
2013-1-29,78,74,69,-100,-100,-100,0,0,100,0.00,40.00,0,-999,0,0.00
2013-1-30,62,56,40,-100,-100,-100,0,0,100,0.00,40.00,0,-999,0,0.00
2013-1-31,67,57,32,-100,-100,-100,0,0,100,0.00,40.00,0,-999,0,0.00
2013-2-1,74,61,43,-100,-100,-100,0,0,100,0.00,40.00,0,-999,0,0.00
2013-2-2,78,61,45,-100,-100,-100,0,0,100,0.00,40.00,0,-999,0,0.00
2013-2-3,74,58,43,-100,-100,-100,0,0,100,0.00,40.00,0,-999,0,0.00
2013-2-4,68,60,49,-100,-100,-100,0,0,100,0.00,40.00,0,-999,0,0.00
2013-2-5,79,70,63,-100,-100,-100,0,0,100,0.00,40.00,0,-999,0,0.00
2013-2-6,67,65,62,-100,-100,-100,0,0,100,0.00,40.00,0,-999,0,0.00
2013-2-7,70,65,62,-100,-100,-100,0,0,100,0.00,40.00,0,-999,0,0.00
2013-2-8,63,61,57,-100,-100,-100,0,0,100,0.00,40.00,0,-999,0,0.00
2013-2-9,67,60,50,-100,-100,-100,0,0,100,0.00,40.00,0,-999,0,0.00
2013-2-10,74,69,65,-100,-100,-100,0,0,100,0.00,40.00,0,-999,0,0.00
2013-2-11,62,56,54,-100,-100,-100,0,0,100,0.00,40.00,0,-999,0,0.00
2013-2-12,61,58,54,-100,-100,-100,0,0,100,0.00,40.00,0,-999,0,0.00
2013-2-13,58,53,45,-100,-100,-100,0,0,100,0.00,40.00,0,-999,0,0.00
2013-2-14,69,47,33,-100,-100,-100,0,0,100,0.00,40.00,0,-999,0,0.00
2013-2-15,65,53,37,-100,-100,-100,0,0,100,0.00,40.00,0,-999,0,0.00
2013-2-16,62,48,34,-100,-100,-100,0,0,100,0.00,40.00,0,-999,0,0.00
2013-2-17,73,53,35,-100,-100,-100,0,0,100,0.00,40.00,0,-999,0,0.00
2013-2-18,73,66,54,-100,-100,-100,0,0,100,0.00,40.00,0,-999,0,0.00
2013-2-19,67,53,42,-100,-100,-100,0,0,100,0.00,40.00,0,-999,0,0.00
2013-2-20,58,55,50,-100,-100,-100,0,0,100,0.00,40.00,0,-999,0,0.00
2013-2-21,80,65,54,-100,-100,-100,0,0,100,0.00,40.00,0,-999,0,0.00
2013-2-22,59,54,49,-100,-100,-100,0,0,100,0.00,40.00,0,-999,0,0.00
2013-2-23,73,54,43,-100,-100,-100,0,0,100,0.00,40.00,0,-999,0,0.00
2013-2-24,74,56,40,-100,-100,-100,0,0,100,0.00,40.00,0,-999,0,0.00
2013-2-25,75,65,51,-100,-100,-100,0,0,100,0.00,40.00,0,-999,0,0.00
2013-2-26,62,53,47,-100,-100,-100,0,0,100,0.00,40.00,0,-999,0,0.00
2013-2-27,71,53,41,-100,-100,-100,0,0,100,0.00,40.00,0,-999,0,0.00
2013-2-28,62,48,40,-100,-100,-100,0,0,100,0.00,40.00,0,-999,0,0.00
2013-3-1,65,53,34,-100,-100,-100,0,0,100,0.00,40.00,0,-999,0,0.00
2013-3-2,55,45,34,-100,-100,-100,0,0,100,0.00,40.00,0,-999,0,0.00
2013-3-3,72,56,31,-100,-100,-100,0,0,100,0.00,40.00,0,-999,0,0.00
2013-3-4,83,67,54,-100,-100,-100,0,0,100,0.00,40.00,0,-999,0,0.00
2013-3-5,69,64,53,-100,-100,-100,0,0,100,0.00,40.00,0,-999,0,0.00
2013-3-6,68,52,34,-100,-100,-100,0,0,100,0.00,40.00,0,-999,0,0.00
2013-3-7,73,59,39,-100,-100,-100,0,0,100,0.00,40.00,0,-999,0,0.00
2013-3-8,75,63,48,-100,-100,-100,0,0,100,0.00,40.00,0,-999,0,0.00
2013-3-9,76,69,62,-100,-100,-100,0,0,100,0.00,40.00,0,-999,0,0.00
2013-3-10,70,63,50,-100,-100,-100,0,0,100,0.00,40.00,0,-999,0,0.00
2013-3-11,64,52,43,-100,-100,-100,0,0,100,0.00,40.00,0,-999,0,0.00
2013-3-12,73,54,36,-100,-100,-100,0,0,100,0.00,40.00,0,-999,0,0.00
2013-3-13,74,56,41,-100,-100,-100,0,0,100,0.00,40.00,0,-999,0,0.00
2013-3-14,78,58,41,-100,-100,-100,0,0,100,0.00,40.00,0,-999,0,0.00
2013-3-15,83,65,53,-100,-100,-100,0,0,100,0.00,40.00,0,-999,0,0.00
2013-3-16,84,70,61,-100,-100,-100,0,0,100,0.00,40.00,0,-999,0,0.00
2013-3-17,86,74,65,-100,-100,-100,0,0,100,0.00,40.00,0,-999,0,0.00
2013-3-18,91,77,69,-100,-100,-100,0,0,100,0.00,40.00,0,-999,0,0.00
2013-3-19,80,68,57,-100,-100,-100,0,0,100,0.00,40.00,0,-999,0,0.00
2013-3-20,77,62,54,-100,-100,-100,0,0,100,0.00,40.00,0,-999,0,0.00
2013-3-21,76,63,48,-100,-100,-100,0,0,100,0.00,40.00,0,-999,0,0.00
2013-3-22,87,75,67,-100,-100,-100,0,0,100,0.00,40.00,0,-999,0,0.00
2013-3-23,72,65,60,-100,-100,-100,0,0,100,0.00,40.00,0,-999,0,0.00
2013-3-24,62,59,50,-100,-100,-100,0,0,100,0.00,40.00,0,-999,0,0.00
2013-3-25,63,50,38,-100,-100,-100,0,0,100,0.00,40.00,0,-999,0,0.00
2013-3-26,65,51,32,-100,-100,-100,0,0,100,0.00,40.00,0,-999,0,0.00
2013-3-27,73,51,34,-100,-100,-100,0,0,100,0.00,40.00,0,-999,0,0.00
2013-3-28,75,64,56,-100,-100,-100,0,0,100,0.00,40.00,0,-999,0,0.00
2013-3-29,79,71,57,-100,-100,-100,0,0,100,0.00,40.00,0,-999,0,0.00
2013-3-30,83,72,66,-100,-100,-100,0,0,100,0.00,40.00,0,-999,0,0.00
2013-3-31,79,72,67,-100,-100,-100,0,0,100,0.00,40.00,0,-999,0,0.00
2013-4-1,85,70,62,-100,-100,-100,0,0,100,0.00,40.00,0,-999,0,0.00
2013-4-2,81,72,62,-100,-100,-100,0,0,100,0.00,40.00,0,-999,0,0.00
2013-4-3,65,56,51,-100,-100,-100,0,0,100,0.00,40.00,0,-999,0,0.00
2013-4-4,55,52,49,-100,-100,-100,0,0,100,0.00,40.00,0,-999,0,0.00
2013-4-5,76,60,43,-100,-100,-100,0,0,100,0.00,40.00,0,-999,0,0.00
2013-4-6,79,63,48,-100,-100,-100,0,0,100,0.00,40.00,0,-999,0,0.00
2013-4-7,81,70,58,-100,-100,-100,0,0,100,0.00,40.00,0,-999,0,0.00
2013-4-8,86,78,70,-100,-100,-100,0,0,100,0.00,40.00,0,-999,0,0.00
2013-4-9,89,78,72,-100,-100,-100,0,0,100,0.00,40.00,0,-999,0,0.00
2013-4-10,82,74,53,-100,-100,-100,0,0,100,0.00,40.00,0,-999,0,0.00
2013-4-11,73,57,46,-100,-100,-100,0,0,100,0.00,40.00,0,-999,0,0.00
2013-4-12,80,62,43,-100,-100,-100,0,0,100,0.00,40.00,0,-999,0,0.00
2013-4-13,83,60,48,-100,-100,-100,0,0,100,0.00,40.00,0,-999,0,0.00
2013-4-14,85,69,54,-100,-100,-100,0,0,100,0.00,40.00,0,-999,0,0.00
2013-4-15,91,80,71,-100,-100,-100,0,0,100,0.00,40.00,0,-999,0,0.00
2013-4-16,90,79,76,-100,-100,-100,0,0,100,0.00,40.00,0,-999,0,0.00
2013-4-17,88,80,77,-100,-100,-100,0,0,100,0.00,40.00,0,-999,0,0.00
2013-4-18,80,68,54,-100,-100,-100,0,0,100,0.00,40.00,0,-999,0,0.00
2013-4-19,67,55,43,-100,-100,-100,0,0,100,0.00,40.00,0,-999,0,0.00
2013-4-20,74,56,37,-100,-100,-100,0,0,100,0.00,40.00,0,-999,0,0.00
2013-4-21,77,62,44,-100,-100,-100,0,0,100,0.00,40.00,0,-999,0,0.00
2013-4-22,85,69,49,-100,-100,-100,0,0,100,0.00,40.00,0,-999,0,0.00
2013-4-23,84,72,60,-100,-100,-100,0,0,100,0.00,40.00,0,-999,0,0.00
2013-4-24,68,62,52,-100,-100,-100,0,0,100,0.00,40.00,0,-999,0,0.00
2013-4-25,76,65,56,-100,-100,-100,0,0,100,0.00,40.00,0,-999,0,0.00
2013-4-26,85,72,66,-100,-100,-100,0,0,100,0.00,40.00,0,-999,0,0.00
2013-4-27,89,78,71,-100,-100,-100,0,0,100,0.00,40.00,0,-999,0,0.00
2013-4-28,91,77,67,-100,-100,-100,0,0,100,0.00,40.00,0,-999,0,0.00
2013-4-29,87,74,61,-100,-100,-100,0,0,100,0.00,40.00,0,-999,0,0.00
2013-4-30,87,75,67,-100,-100,-100,0,0,100,0.00,40.00,0,-999,0,0.00
2013-5-1,84,75,68,-100,-100,-100,0,0,100,0.00,40.00,0,-999,0,0.00
2013-5-2,78,69,55,-100,-100,-100,0,0,100,0.00,40.00,0,-999,0,0.00
2013-5-3,69,56,47,-100,-100,-100,0,0,100,0.00,40.00,0,-999,0,0.00
2013-5-4,82,63,41,-100,-100,-100,0,0,100,0.00,40.00,0,-999,0,0.00
2013-5-5,71,58,46,-100,-100,-100,0,0,100,0.00,40.00,0,-999,0,0.00
2013-5-6,83,68,46,-100,-100,-100,0,0,100,0.00,40.00,0,-999,0,0.00
2013-5-7,91,71,60,-100,-100,-100,0,0,100,0.00,40.00,0,-999,0,0.00
2013-5-8,89,78,62,-100,-100,-100,0,0,100,0.00,40.00,0,-999,0,0.00
2013-5-9,78,74,71,-100,-100,-100,0,0,100,0.00,40.00,0,-999,0,0.00
2013-5-10,83,74,69,-100,-100,-100,0,0,100,0.00,40.00,0,-999,0,0.00
2013-5-11,87,75,68,-100,-100,-100,0,0,100,0.00,40.00,0,-999,0,0.00
2013-5-12,80,70,60,-100,-100,-100,0,0,100,0.00,40.00,0,-999,0,0.00
2013-5-13,87,72,51,-100,-100,-100,0,0,100,0.00,40.00,0,-999,0,0.00
2013-5-14,88,73,60,-100,-100,-100,0,0,100,0.00,40.00,0,-999,0,0.00
2013-5-15,76,72,69,-100,-100,-100,0,0,100,0.00,40.00,0,-999,0,0.00
2013-5-16,87,78,68,-100,-100,-100,0,0,100,0.00,40.00,0,-999,0,0.00
2013-5-17,92,83,76,-100,-100,-100,0,0,100,0.00,40.00,0,-999,0,0.00
2013-5-18,94,83,77,-100,-100,-100,0,0,100,0.00,40.00,0,-999,0,0.00
2013-5-19,94,83,77,-100,-100,-100,0,0,100,0.00,40.00,0,-999,0,0.00
2013-5-20,91,84,79,-100,-100,-100,0,0,100,0.00,40.00,0,-999,0,0.00
2013-5-21,91,84,79,-100,-100,-100,0,0,100,0.00,40.00,0,-999,0,0.00
2013-5-22,84,75,70,-100,-100,-100,0,0,100,0.00,40.00,0,-999,0,0.00
2013-5-23,94,83,76,-100,-100,-100,0,0,100,0.00,40.00,0,-999,0,0.00
2013-5-24,91,82,70,-100,-100,-100,0,0,100,0.00,40.00,0,-999,0,0.00
2013-5-25,90,80,73,-100,-100,-100,0,0,100,0.00,40.00,0,-999,0,0.00
2013-5-26,88,82,76,-100,-100,-100,0,0,100,0.00,40.00,0,-999,0,0.00
2013-5-27,93,83,75,-100,-100,-100,0,0,100,0.00,40.00,0,-999,0,0.00
2013-5-28,91,84,76,-100,-100,-100,0,0,100,0.00,40.00,0,-999,0,0.00
2013-5-29,89,83,78,-100,-100,-100,0,0,100,0.00,40.00,0,-999,0,0.00
2013-5-30,94,84,80,-100,-100,-100,0,0,100,0.00,40.00,0,-999,0,0.00
2013-5-31,94,87,82,-100,-100,-100,0,0,100,0.00,40.00,0,-999,0,0.00
2013-6-1,95,88,82,-100,-100,-100,0,0,100,0.00,40.00,0,-999,0,0.00
2013-6-2,84,79,73,-100,-100,-100,0,0,100,0.00,40.00,0,-999,0,0.00
2013-6-3,91,81,67,-100,-100,-100,0,0,100,0.00,40.00,0,-999,0,0.00
2013-6-4,94,82,73,-100,-100,-100,0,0,100,0.00,40.00,0,-999,0,0.00
2013-6-5,95,85,75,-100,-100,-100,0,0,100,0.00,40.00,0,-999,0,0.00
2013-6-6,91,79,73,-100,-100,-100,0,0,100,0.00,40.00,0,-999,0,0.00
2013-6-7,89,78,71,-100,-100,-100,0,0,100,0.00,40.00,0,-999,0,0.00
2013-6-8,91,81,69,-100,-100,-100,0,0,100,0.00,40.00,0,-999,0,0.00
2013-6-9,94,80,73,-100,-100,-100,0,0,100,0.00,40.00,0,-999,0,0.00
2013-6-10,96,86,75,-100,-100,-100,0,0,100,0.00,40.00,0,-999,0,0.00
2013-6-11,96,88,79,-100,-100,-100,0,0,100,0.00,40.00,0,-999,0,0.00
2013-6-12,97,89,79,-100,-100,-100,0,0,100,0.00,40.00,0,-999,0,0.00
2013-6-13,98,88,80,-100,-100,-100,0,0,100,0.00,40.00,0,-999,0,0.00
2013-6-14,98,91,81,-100,-100,-100,0,0,100,0.00,40.00,0,-999,0,0.00
2013-6-15,98,86,75,-100,-100,-100,0,0,100,0.00,40.00,0,-999,0,0.00
2013-6-16,98,90,79,-100,-100,-100,0,0,100,0.00,40.00,0,-999,0,0.00
2013-6-17,98,88,81,-100,-100,-100,0,0,100,0.00,40.00,0,-999,0,0.00
2013-6-18,96,87,80,-100,-100,-100,0,0,100,0.00,40.00,0,-999,0,0.00
2013-6-19,94,84,76,-100,-100,-100,0,0,100,0.00,40.00,0,-999,0,0.00
2013-6-20,97,87,79,-100,-100,-100,0,0,100,0.00,40.00,0,-999,0,0.00
2013-6-22,97,92,85,-100,-100,-100,0,0,100,0.00,40.00,0,-999,0,0.00
2013-6-23,96,85,77,-100,-100,-100,0,0,100,0.00,40.00,0,-999,0,0.00
2013-6-24,97,88,80,-100,-100,-100,0,0,100,0.00,40.00,0,-999,0,0.00
2013-6-25,97,87,80,-100,-100,-100,0,0,100,0.00,40.00,0,-999,0,0.00
2013-6-26,99,87,80,-100,-100,-100,0,0,100,0.00,40.00,0,-999,0,0.00
2013-6-27,99,87,80,-100,-100,-100,0,0,100,0.00,40.00,0,-999,0,0.00
2013-6-28,102,91,80,-100,-100,-100,0,0,100,0.00,40.00,0,-999,0,0.00
2013-6-29,105,90,80,-100,-100,-100,0,0,100,0.00,40.00,0,-999,0,0.00
2013-6-30,96,81,70,-100,-100,-100,0,0,100,0.00,40.00,0,-999,0,0.00
2013-7-1,93,81,68,-100,-100,-100,0,0,100,0.00,40.00,0,-999,0,0.00
2013-7-2,93,76,67,-100,-100,-100,0,0,100,0.00,40.00,0,-999,0,0.00
2013-7-3,93,80,69,-100,-100,-100,0,0,100,0.00,40.00,0,-999,0,0.00
2013-7-4,97,85,71,-100,-100,-100,0,0,100,0.00,40.00,0,-999,0,0.00
2013-7-5,99,79,72,-100,-100,-100,0,0,100,0.00,40.00,0,-999,0,0.00
2013-7-6,97,83,74,-100,-100,-100,0,0,100,0.00,40.00,0,-999,0,0.00
2013-7-7,92,84,78,-100,-100,-100,0,0,100,0.00,40.00,0,-999,0,0.00
2013-7-8,91,83,78,-100,-100,-100,0,0,100,0.00,40.00,0,-999,0,0.00
2013-7-9,100,88,76,-100,-100,-100,0,0,100,0.00,40.00,0,-999,0,0.00
2013-7-10,100,90,80,-100,-100,-100,0,0,100,0.00,40.00,0,-999,0,0.00
2013-7-11,99,89,81,-100,-100,-100,0,0,100,0.00,40.00,0,-999,0,0.00
2013-7-12,100,86,80,-100,-100,-100,0,0,100,0.00,40.00,0,-999,0,0.00
2013-7-13,101,88,78,-100,-100,-100,0,0,100,0.00,40.00,0,-999,0,0.00
2013-7-14,91,81,74,-100,-100,-100,0,0,100,0.00,40.00,0,-999,0,0.00
2013-7-15,94,80,75,-100,-100,-100,0,0,100,0.00,40.00,0,-999,0,0.00
2013-7-16,89,80,75,-100,-100,-100,0,0,100,0.00,40.00,0,-999,0,0.00
2013-7-17,89,82,77,-100,-100,-100,0,0,100,0.00,40.00,0,-999,0,0.00
2013-7-18,97,89,77,-100,-100,-100,0,0,100,0.00,40.00,0,-999,0,0.00
2013-7-19,82,80,78,-100,-100,-100,0,0,100,0.00,40.00,0,-999,0,0.00
2013-7-20,91,81,76,-100,-100,-100,0,0,100,0.00,40.00,0,-999,0,0.00
2013-7-21,91,82,76,-100,-100,-100,0,0,100,0.00,40.00,0,-999,0,0.00
2013-7-22,98,89,81,-100,-100,-100,0,0,100,0.00,40.00,0,-999,0,0.00
2013-7-23,98,86,82,-100,-100,-100,0,0,100,0.00,40.00,0,-999,0,0.00
2013-7-24,98,87,80,-100,-100,-100,0,0,100,0.00,40.00,0,-999,0,0.00
2013-7-25,99,90,80,-100,-100,-100,0,0,100,0.00,40.00,0,-999,0,0.00
2013-7-26,99,90,83,-100,-100,-100,0,0,100,0.00,40.00,0,-999,0,0.00
2013-7-27,88,86,83,-100,-100,-100,0,0,100,0.00,40.00,0,-999,0,0.00
2013-7-28,91,82,75,-100,-100,-100,0,0,100,0.00,40.00,0,-999,0,0.00
2013-7-29,99,87,80,-100,-100,-100,0,0,100,0.00,40.00,0,-999,0,0.00
2013-7-30,100,87,79,-100,-100,-100,0,0,100,0.00,40.00,0,-999,0,0.00
2013-7-31,99,84,78,-100,-100,-100,0,0,100,0.00,40.00,0,-999,0,0.00
2013-8-1,103,91,81,-100,-100,-100,0,0,100,0.00,40.00,0,-999,0,0.00
2013-8-2,101,89,80,-100,-100,-100,0,0,100,0.00,40.00,0,-999,0,0.00
2013-8-3,101,92,80,-100,-100,-100,0,0,100,0.00,40.00,0,-999,0,0.00
2013-8-4,103,93,83,-100,-100,-100,0,0,100,0.00,40.00,0,-999,0,0.00
2013-8-5,102,89,82,-100,-100,-100,0,0,100,0.00,40.00,0,-999,0,0.00
2013-8-6,105,92,81,-100,-100,-100,0,0,100,0.00,40.00,0,-999,0,0.00
2013-8-7,105,89,82,-100,-100,-100,0,0,100,0.00,40.00,0,-999,0,0.00
2013-8-8,105,92,79,-100,-100,-100,0,0,100,0.00,40.00,0,-999,0,0.00
2013-8-9,105,92,79,-100,-100,-100,0,0,100,0.00,40.00,0,-999,0,0.00
2013-8-10,103,87,82,-100,-100,-100,0,0,100,0.00,40.00,0,-999,0,0.00
2013-8-11,91,82,76,-100,-100,-100,0,0,100,0.00,40.00,0,-999,0,0.00
2013-8-12,100,85,78,-100,-100,-100,0,0,100,0.00,40.00,0,-999,0,0.00
2013-8-13,105,91,83,-100,-100,-100,0,0,100,0.00,40.00,0,-999,0,0.00
2013-8-14,97,86,83,-100,-100,-100,0,0,100,0.00,40.00,0,-999,0,0.00
2013-8-15,94,84,76,-100,-100,-100,0,0,100,0.00,40.00,0,-999,0,0.00
2013-8-16,98,81,73,-100,-100,-100,0,0,100,0.00,40.00,0,-999,0,0.00
2013-8-17,94,80,73,-100,-100,-100,0,0,100,0.00,40.00,0,-999,0,0.00
2013-8-18,97,80,67,-100,-100,-100,0,0,100,0.00,40.00,0,-999,0,0.00
2013-8-19,99,86,74,-100,-100,-100,0,0,100,0.00,40.00,0,-999,0,0.00
2013-8-20,100,87,75,-100,-100,-100,0,0,100,0.00,40.00,0,-999,0,0.00
2013-8-21,102,84,75,-100,-100,-100,0,0,100,0.00,40.00,0,-999,0,0.00
2013-8-22,100,91,79,-100,-100,-100,0,0,100,0.00,40.00,0,-999,0,0.00
2013-8-23,103,87,79,-100,-100,-100,0,0,100,0.00,40.00,0,-999,0,0.00
2013-8-24,104,90,79,-100,-100,-100,0,0,100,0.00,40.00,0,-999,0,0.00
2013-8-25,98,86,77,-100,-100,-100,0,0,100,0.00,40.00,0,-999,0,0.00
2013-8-26,89,80,77,-100,-100,-100,0,0,100,0.00,40.00,0,-999,0,0.00
2013-8-27,95,81,76,-100,-100,-100,0,0,100,0.00,40.00,0,-999,0,0.00
2013-8-28,102,94,87,-100,-100,-100,0,0,100,0.00,40.00,0,-999,0,0.00
2013-8-29,104,90,80,-100,-100,-100,0,0,100,0.00,40.00,0,-999,0,0.00
2013-8-30,105,90,81,-100,-100,-100,0,0,100,0.00,40.00,0,-999,0,0.00
2013-8-31,102,89,79,-100,-100,-100,0,0,100,0.00,40.00,0,-999,0,0.00
2013-9-1,103,87,78,-100,-100,-100,0,0,100,0.00,40.00,0,-999,0,0.00
2013-9-2,102,85,79,-100,-100,-100,0,0,100,0.00,40.00,0,-999,0,0.00
2013-9-3,102,87,82,-100,-100,-100,0,0,100,0.00,40.00,0,-999,0,0.00
2013-9-4,98,86,77,-100,-100,-100,0,0,100,0.00,40.00,0,-999,0,0.00
2013-9-5,102,89,76,-100,-100,-100,0,0,100,0.00,40.00,0,-999,0,0.00
2013-9-6,102,89,78,-100,-100,-100,0,0,100,0.00,40.00,0,-999,0,0.00
2013-9-7,100,83,77,-100,-100,-100,0,0,100,0.00,40.00,0,-999,0,0.00
2013-9-8,98,81,73,-100,-100,-100,0,0,100,0.00,40.00,0,-999,0,0.00
2013-9-9,99,86,74,-100,-100,-100,0,0,100,0.00,40.00,0,-999,0,0.00
2013-9-10,98,86,76,-100,-100,-100,0,0,100,0.00,40.00,0,-999,0,0.00
2013-9-11,99,82,74,-100,-100,-100,0,0,100,0.00,40.00,0,-999,0,0.00
2013-9-12,98,87,74,-100,-100,-100,0,0,100,0.00,40.00,0,-999,0,0.00
2013-9-13,102,83,73,-100,-100,-100,0,0,100,0.00,40.00,0,-999,0,0.00
2013-9-14,100,86,79,-100,-100,-100,0,0,100,0.00,40.00,0,-999,0,0.00
2013-9-15,98,85,76,-100,-100,-100,0,0,100,0.00,40.00,0,-999,0,0.00
2013-9-16,101,90,76,-100,-100,-100,0,0,100,0.00,40.00,0,-999,0,0.00
2013-9-17,101,88,74,-100,-100,-100,0,0,100,0.00,40.00,0,-999,0,0.00
2013-9-18,86,81,75,-100,-100,-100,0,0,100,0.00,40.00,0,-999,0,0.00
2013-9-19,95,83,77,-100,-100,-100,0,0,100,0.00,40.00,0,-999,0,0.00
2013-9-20,83,80,76,-100,-100,-100,0,0,100,0.00,40.00,0,-999,0,0.00
2013-9-21,85,76,73,-100,-100,-100,0,0,100,0.00,40.00,0,-999,0,0.00
2013-9-22,87,72,62,-100,-100,-100,0,0,100,0.00,40.00,0,-999,0,0.00
2013-9-23,91,78,65,-100,-100,-100,0,0,100,0.00,40.00,0,-999,0,0.00
2013-9-24,97,85,76,-100,-100,-100,0,0,100,0.00,40.00,0,-999,0,0.00
2013-9-25,99,79,68,-100,-100,-100,0,0,100,0.00,40.00,0,-999,0,0.00
2013-9-26,95,77,63,-100,-100,-100,0,0,100,0.00,40.00,0,-999,0,0.00
2013-9-27,95,82,70,-100,-100,-100,0,0,100,0.00,40.00,0,-999,0,0.00
2013-9-28,94,84,75,-100,-100,-100,0,0,100,0.00,40.00,0,-999,0,0.00
2013-9-29,80,79,78,-100,-100,-100,0,0,100,0.00,40.00,0,-999,0,0.00
2013-9-30,88,81,77,-100,-100,-100,0,0,100,0.00,40.00,0,-999,0,0.00
2013-10-1,80,80,80,-100,-100,-100,0,0,100,0.00,40.00,0,-999,0,0.00
2013-10-2,92,82,77,-100,-100,-100,0,0,100,0.00,40.00,0,-999,0,0.00
2013-10-3,94,82,76,-100,-100,-100,0,0,100,0.00,40.00,0,-999,0,0.00
2013-10-4,95,85,73,-100,-100,-100,0,0,100,0.00,40.00,0,-999,0,0.00
2013-10-5,91,80,73,-100,-100,-100,0,0,100,0.00,40.00,0,-999,0,0.00
2013-10-6,79,69,61,-100,-100,-100,0,0,100,0.00,40.00,0,-999,0,0.00
2013-10-7,83,71,52,-100,-100,-100,0,0,100,0.00,40.00,0,-999,0,0.00
2013-10-8,81,66,51,-100,-100,-100,0,0,100,0.00,40.00,0,-999,0,0.00
2013-10-9,85,71,56,-100,-100,-100,0,0,100,0.00,40.00,0,-999,0,0.00
2013-10-10,87,72,58,-100,-100,-100,0,0,100,0.00,40.00,0,-999,0,0.00
2013-10-11,93,79,66,-100,-100,-100,0,0,100,0.00,40.00,0,-999,0,0.00
2013-10-12,93,80,73,-100,-100,-100,0,0,100,0.00,40.00,0,-999,0,0.00
2013-10-13,82,76,73,-100,-100,-100,0,0,100,0.00,40.00,0,-999,0,0.00
2013-10-14,87,80,76,-100,-100,-100,0,0,100,0.00,40.00,0,-999,0,0.00
2013-10-15,89,81,75,-100,-100,-100,0,0,100,0.00,40.00,0,-999,0,0.00
2013-10-16,79,72,65,-100,-100,-100,0,0,100,0.00,40.00,0,-999,0,0.00
2013-10-17,76,68,58,-100,-100,-100,0,0,100,0.00,40.00,0,-999,0,0.00
2013-10-18,73,62,55,-100,-100,-100,0,0,100,0.00,40.00,0,-999,0,0.00
2013-10-19,69,63,54,-100,-100,-100,0,0,100,0.00,40.00,0,-999,0,0.00
2013-10-20,76,56,43,-100,-100,-100,0,0,100,0.00,40.00,0,-999,0,0.00
2013-10-21,82,67,54,-100,-100,-100,0,0,100,0.00,40.00,0,-999,0,0.00
2013-10-22,74,66,55,-100,-100,-100,0,0,100,0.00,40.00,0,-999,0,0.00
2013-10-23,82,63,50,-100,-100,-100,0,0,100,0.00,40.00,0,-999,0,0.00
2013-10-24,87,65,55,-100,-100,-100,0,0,100,0.00,40.00,0,-999,0,0.00
2013-10-25,74,62,56,-100,-100,-100,0,0,100,0.00,40.00,0,-999,0,0.00
2013-10-26,84,65,49,-100,-100,-100,0,0,100,0.00,40.00,0,-999,0,0.00
2013-10-27,77,69,63,-100,-100,-100,0,0,100,0.00,40.00,0,-999,0,0.00
2013-10-28,84,73,62,-100,-100,-100,0,0,100,0.00,40.00,0,-999,0,0.00
2013-10-29,86,77,71,-100,-100,-100,0,0,100,0.00,40.00,0,-999,0,0.00
2013-10-30,79,74,71,-100,-100,-100,0,0,100,0.00,40.00,0,-999,0,0.00
2013-10-31,80,74,63,-100,-100,-100,0,0,100,0.00,40.00,0,-999,0,0.00
2013-11-1,80,66,53,-100,-100,-100,0,0,100,0.00,40.00,0,-999,0,0.00
2013-11-2,73,63,52,-100,-100,-100,0,0,100,0.00,40.00,0,-999,0,0.00
2013-11-3,69,60,43,-100,-100,-100,0,0,100,0.00,40.00,0,-999,0,0.00
2013-11-4,74,63,54,-100,-100,-100,0,0,100,0.00,40.00,0,-999,0,0.00
2013-11-5,79,72,67,-100,-100,-100,0,0,100,0.00,40.00,0,-999,0,0.00
2013-11-6,75,69,54,-100,-100,-100,0,0,100,0.00,40.00,0,-999,0,0.00
2013-11-7,65,53,45,-100,-100,-100,0,0,100,0.00,40.00,0,-999,0,0.00
2013-11-8,69,55,48,-100,-100,-100,0,0,100,0.00,40.00,0,-999,0,0.00
2013-11-9,65,60,55,-100,-100,-100,0,0,100,0.00,40.00,0,-999,0,0.00
2013-11-10,73,58,50,-100,-100,-100,0,0,100,0.00,40.00,0,-999,0,0.00
2013-11-11,76,61,47,-100,-100,-100,0,0,100,0.00,40.00,0,-999,0,0.00
2013-11-12,67,54,45,-100,-100,-100,0,0,100,0.00,40.00,0,-999,0,0.00
2013-11-13,54,45,34,-100,-100,-100,0,0,100,0.00,40.00,0,-999,0,0.00
2013-11-14,64,51,31,-100,-100,-100,0,0,100,0.00,40.00,0,-999,0,0.00
2013-11-15,78,64,48,-100,-100,-100,0,0,100,0.00,40.00,0,-999,0,0.00
2013-11-16,81,72,58,-100,-100,-100,0,0,100,0.00,40.00,0,-999,0,0.00
2013-11-17,88,79,71,-100,-100,-100,0,0,100,0.00,40.00,0,-999,0,0.00
2013-11-18,82,68,58,-100,-100,-100,0,0,100,0.00,40.00,0,-999,0,0.00
2013-11-19,69,60,48,-100,-100,-100,0,0,100,0.00,40.00,0,-999,0,0.00
2013-11-20,75,58,43,-100,-100,-100,0,0,100,0.00,40.00,0,-999,0,0.00
2013-11-21,80,72,63,-100,-100,-100,0,0,100,0.00,40.00,0,-999,0,0.00
2013-11-22,75,59,47,-100,-100,-100,0,0,100,0.00,40.00,0,-999,0,0.00
2013-11-23,49,48,47,-100,-100,-100,0,0,100,0.00,40.00,0,-999,0,0.00
2013-11-24,49,44,40,-100,-100,-100,0,0,100,0.00,40.00,0,-999,0,0.00
2013-11-25,43,41,39,-100,-100,-100,0,0,100,0.00,40.00,0,-999,0,0.00
2013-11-26,44,41,40,-100,-100,-100,0,0,100,0.00,40.00,0,-999,0,0.00
2013-11-27,49,39,32,-100,-100,-100,0,0,100,0.00,40.00,0,-999,0,0.00
2013-11-28,55,40,31,-100,-100,-100,0,0,100,0.00,40.00,0,-999,0,0.00
2013-11-29,60,46,32,-100,-100,-100,0,0,100,0.00,40.00,0,-999,0,0.00
2013-11-30,68,51,36,-100,-100,-100,0,0,100,0.00,40.00,0,-999,0,0.00
2013-12-1,72,63,57,-100,-100,-100,0,0,100,0.00,40.00,0,-999,0,0.00
2013-12-2,80,67,59,-100,-100,-100,0,0,100,0.00,40.00,0,-999,0,0.00
2013-12-3,83,68,60,-100,-100,-100,0,0,100,0.00,40.00,0,-999,0,0.00
2013-12-4,80,73,69,-100,-100,-100,0,0,100,0.00,40.00,0,-999,0,0.00
2013-12-5,77,64,41,-100,-100,-100,0,0,100,0.00,40.00,0,-999,0,0.00
2013-12-6,43,42,36,-100,-100,-100,0,0,100,0.00,40.00,0,-999,0,0.00
2013-12-7,38,36,35,-100,-100,-100,0,0,100,0.00,40.00,0,-999,0,0.00
2013-12-8,45,40,37,-100,-100,-100,0,0,100,0.00,40.00,0,-999,0,0.00
2013-12-9,45,43,41,-100,-100,-100,0,0,100,0.00,40.00,0,-999,0,0.00
2013-12-10,47,39,32,-100,-100,-100,0,0,100,0.00,40.00,0,-999,0,0.00
2013-12-11,55,42,32,-100,-100,-100,0,0,100,0.00,40.00,0,-999,0,0.00
2013-12-12,53,43,36,-100,-100,-100,0,0,100,0.00,40.00,0,-999,0,0.00
2013-12-13,56,49,40,-100,-100,-100,0,0,100,0.00,40.00,0,-999,0,0.00
2013-12-14,55,50,43,-100,-100,-100,0,0,100,0.00,40.00,0,-999,0,0.00
2013-12-15,57,40,32,-100,-100,-100,0,0,100,0.00,40.00,0,-999,0,0.00
2013-12-16,65,41,31,-100,-100,-100,0,0,100,0.00,40.00,0,-999,0,0.00
2013-12-17,72,51,35,-100,-100,-100,0,0,100,0.00,40.00,0,-999,0,0.00
2013-12-18,74,56,39,-100,-100,-100,0,0,100,0.00,40.00,0,-999,0,0.00
2013-12-19,76,68,56,-100,-100,-100,0,0,100,0.00,40.00,0,-999,0,0.00
2013-12-20,80,75,73,-100,-100,-100,0,0,100,0.00,40.00,0,-999,0,0.00
2013-12-21,77,71,60,-100,-100,-100,0,0,100,0.00,40.00,0,-999,0,0.00
2013-12-22,61,53,40,-100,-100,-100,0,0,100,0.00,40.00,0,-999,0,0.00
2013-12-23,52,40,34,-100,-100,-100,0,0,100,0.00,40.00,0,-999,0,0.00
2013-12-24,57,40,29,-100,-100,-100,0,0,100,0.00,40.00,0,-999,0,0.00
2013-12-25,64,45,30,-100,-100,-100,0,0,100,0.00,40.00,0,-999,0,0.00
2013-12-26,64,51,41,-100,-100,-100,0,0,100,0.00,40.00,0,-999,0,0.00
2013-12-27,59,50,43,-100,-100,-100,0,0,100,0.00,40.00,0,-999,0,0.00
2013-12-28,61,52,44,-100,-100,-100,0,0,100,0.00,40.00,0,-999,0,0.00
2013-12-29,69,47,37,-100,-100,-100,0,0,100,0.00,40.00,0,-999,0,0.00
2013-12-30,47,43,40,-100,-100,-100,0,0,100,0.00,40.00,0,-999,0,0.00
2013-12-31,50,45,39,-100,-100,-100,0,0,100,0.00,40.00,0,-999,0,0.00
2014-1-1,65,50,38,-100,-100,-100,0,0,100,0.00,40.00,0,-999,0,0.00
2014-1-2,62,49,34,-100,-100,-100,0,0,100,0.00,40.00,0,-999,0,0.00